[[{"header":{"parameterUnit":"m.s-1","parameterCategory":2,"la1":30.2991,"la2":30.254,"lo1":-89.0895,"lo2":-89.0444,"dy":0.0017,"dx":0.0017,"nx":28,"ny":28,"refTime":"2024-08-15T09:00:00:Z","depth":"0","parameterNumber":2,"parameterNumberName":"U-component_of_CURRENTS"},"data":[0,0,0,0,0,0,0,0,0,0,0,0,0,0,0,0,0,0,0,0,0,0,0,0,0,0,0,0,0,0,0,0,0,0,0,0,0,0,0,0,0,0,0,0,0,0,0,0,0,0,0,0,0,0,0,0,0,0,-0.1346,-0.1347,0,-0.1491,-0.1493,-0.1495,-0.1663,-0.1665,-0.1667,-0.1669,-0.1764,-0.1764,-0.1765,0,0,0,0,0,0,0,0,0,0,0,0,0,-0.1378,-0.1376,-0.1346,-0.1347,-0.1348,-0.1491,-0.1493,-0.1496,-0.1663,-0.1666,-0.1668,-0.167,-0.1763,-0.1764,-0.1765,0,0,0,0,0,0,0,0,0,0,0,0,0,-0.1433,-0.1376,-0.1346,-0.1445,-0.1455,-0.149,-0.1493,-0.1496,-0.1663,-0.1666,-0.1669,-0.1671,-0.1763,-0.1764,-0.1765,-0.1711,0,0,-0.1768,-0.1768,0,0,0,0,0,0,0,0,-0.1429,-0.1432,-0.1429,-0.1438,-0.1449,-0.1557,-0.1539,-0.1564,-0.1662,-0.159,-0.1669,-0.1673,-0.1683,-0.1691,-0.1721,-0.1716,-0.172,-0.1768,-0.1769,-0.1769,-0.1769,0,0,0,0,0,0,0,-0.1425,-0.1428,-0.141,-0.143,-0.1442,-0.1538,-0.1548,-0.1546,-0.1622,-0.1596,-0.1607,-0.1613,-0.169,-0.172,-0.1724,-0.1721,-0.1768,-0.1769,-0.177,-0.177,-0.1702,-0.17,0,0,0,0,0,0,-0.1383,-0.1422,-0.1405,-0.1413,-0.144,-0.1534,-0.1546,-0.1524,-0.1623,-0.164,-0.161,-0.162,-0.1717,-0.1723,-0.1728,-0.1575,-0.1769,-0.177,-0.1771,-0.1705,-0.1702,-0.1699,0,0,0,0,0,0,-0.1382,-0.1378,-0.1399,-0.1419,-0.1428,-0.1528,-0.1504,-0.1525,-0.1555,-0.1633,-0.1651,-0.1617,-0.1719,-0.1727,-0.1722,-0.1584,-0.177,-0.1771,-0.1708,-0.1704,-0.1701,-0.1329,0,0,0,0,0,0,-0.1382,-0.1377,-0.1343,-0.1414,-0.1425,-0.1342,-0.1501,-0.1526,-0.1551,-0.1565,-0.1643,-0.1657,-0.1722,-0.172,-0.1723,-0.1588,-0.1772,-0.1711,-0.1706,-0.1702,-0.1344,-0.1313,-0.1286,0,0,0,0,0,-0.1382,-0.1283,-0.134,-0.1338,-0.1375,-0.1336,-0.1346,-0.1438,-0.1547,-0.1492,-0.1601,-0.1655,-0.1695,-0.1718,-0.1723,-0.1584,-0.1713,-0.1707,-0.1702,-0.1357,-0.1319,-0.1287,0,0,0,0,0,0,-0.1253,-0.1294,-0.1357,-0.1272,-0.128,-0.136,-0.1329,-0.1415,-0.1464,-0.15,-0.1618,-0.1633,-0.1574,-0.1654,-0.1679,-0.1567,-0.1713,-0.1708,-0.1449,-0.1414,-0.1386,-0.1317,-0.1773,0,0,0,0,0,-0.1215,-0.1173,-0.1216,-0.1148,-0.1146,-0.1248,-0.1255,-0.1312,-0.1369,-0.1398,-0.1459,-0.1536,-0.1552,-0.1548,-0.1577,-0.1502,-0.1492,-0.1429,-0.14,-0.1374,-0.1329,-0.1266,-0.1223,-0.1682,-0.1682,-0.1682,0,0,-0.1153,-0.1166,-0.1147,-0.1122,-0.1159,-0.1094,-0.1258,-0.1228,-0.1178,-0.1392,-0.1341,-0.1425,-0.1519,-0.1441,-0.142,-0.1486,-0.1214,-0.1367,-0.1343,-0.1312,-0.1255,-0.1209,-0.1169,-0.1678,-0.1679,-0.1679,0,0,-0.0987,-0.1011,-0.0925,-0.0912,-0.0924,-0.0965,-0.0945,-0.0999,-0.1021,-0.0984,-0.1135,-0.114,-0.117,-0.119,-0.1214,-0.1047,-0.1069,-0.107,-0.0839,-0.0775,-0.0735,-0.07,-0.0494,-0.0444,-0.1045,-0.1044,-0.1044,0,-0.0916,-0.0827,-0.0883,-0.0791,-0.0773,-0.0891,-0.0793,-0.0793,-0.084,-0.0837,-0.0912,-0.0965,-0.1031,-0.0948,-0.0896,-0.0961,-0.0908,-0.0944,-0.0726,-0.0692,-0.0662,-0.0462,-0.0411,-0.1026,-0.1028,-0.103,-0.1032,0,-0.0698,-0.0633,-0.0566,-0.0511,-0.0472,-0.0401,-0.0418,-0.0388,-0.0456,-0.0485,-0.0428,-0.0522,-0.0558,-0.0564,-0.0669,-0.0496,-0.0509,-0.0691,-0.0786,-0.0591,-0.0394,-0.0347,-0.0999,-0.1006,-0.1011,-0.1016,0,0,-0.0535,-0.0444,-0.0421,-0.0395,-0.0338,-0.03,-0.0172,-0.0114,-0.007,-0.0068,0.0014,0.0005,-0.0084,-0.0121,-0.0237,-0.0175,0.0127,-0.0316,-0.0322,-0.0055,0.0397,0.0552,0.0617,-0.0024,-0.0018,-0.0013,0.0503,0,-0.0367,-0.0192,-0.0164,-0.0008,0.0055,0.0023,0.014,0.0178,0.0183,0.0253,0.0208,0.0239,0.0101,0.0083,0.0147,0.0084,0.0243,0.0013,0.0117,0.0125,0.0281,0.0671,0.0726,0.1199,0.0547,0.0555,0.056,0,-0.0166,-0.0101,0.0066,0.0152,0.0183,0.0277,0.0362,0.046,0.0548,0.0559,0.0614,0.0548,0.0679,0.0477,0.066,0.0516,0.0529,0.0502,0.0516,0.0555,0.0364,0.0862,0.1306,0.1288,0.063,0.0625,0.062,0,-0.0112,0.0064,0.0167,0.0204,0.0308,0.0376,0.0442,0.0536,0.0617,0.0754,0.0818,0.0924,0.0985,0.1017,0.1012,0.0845,0.1219,0.0955,0.1161,0.1175,0.1193,0.1197,0.1669,0.1144,0.1143,0.1141,0.114,0,0.0022,0.0109,0.0188,0.0227,0.0362,0.0425,0.0576,0.0654,0.0794,0.0923,0.0966,0.1092,0.1104,0.127,0.1223,0.1451,0.1425,0.136,0.1349,0.1336,0.1346,0.1289,0.1183,0.1161,0.1157,0.1153,0.1149,0,0.006,0.0121,0.0227,0.0332,0.0378,0.0466,0.0639,0.0756,0.0881,0.1064,0.1125,0.1316,0.1569,0.1653,0.1782,0.1776,0.1919,0.1956,0.2044,0.2034,0.2155,0.2064,0.2351,0.234,0.2329,0.2337,0.2343,0,0.0108,0.015,0.026,0.0343,0.0396,0.0532,0.0647,0.0783,0.0913,0.1178,0.1285,0.1599,0.1791,0.2201,0.2314,0.2524,0.2264,0.2666,0.2329,0.2358,0.2244,0.1969,0.1912,0.2562,0.2569,0.2575,0.258,0,0.018,0.0192,0.0278,0.0419,0.0542,0.0665,0.0828,0.0915,0.11,0.1249,0.1503,0.1678,0.2143,0.2433,0.2785,0.2845,0.2627,0.2799,0.2766,0.251,0.2301,0.2214,0.2103,0.2635,0.2629,0.2625,0.2622,0.262,0.0265,0.0338,0.0451,0.0595,0.0702,0.0823,0.0913,0.1056,0.1231,0.1447,0.1604,0.1861,0.2322,0.2826,0.2993,0.3319,0.3021,0.3199,0.3126,0.2875,0.2761,0.2886,0.3384,0.3383,0.3382,0.3381,0.338,0,0.0488,0.0556,0.0655,0.0828,0.0922,0.0938,0.108,0.1149,0.1308,0.1493,0.1681,0.21,0.2566,0.2966,0.3481,0.3576,0.3365,0.3555,0.3147,0.3094,0.3221,0.3123,0.3661,0.3661,0.3661,0.3661,0.3661,0.3661,0.0658,0.0824,0.0855,0.1047,0.1101,0.1209,0.1257,0.1305,0.1412,0.1628,0.1824,0.1984,0.2467,0.319,0.3635,0.3673,0.3449,0.3427,0.332,0.3363,0.3317,0.3274,0.3163,0.3701,0.3701,0.309,0.3086,0.3083]},{"header":{"parameterUnit":"m.s-1","parameterCategory":2,"la1":30.2991,"la2":30.254,"lo1":-89.0895,"lo2":-89.0444,"dy":0.0017,"dx":0.0017,"nx":28,"ny":28,"refTime":"2024-08-15T09:00:00:Z","depth":"0","parameterNumber":3,"parameterNumberName":"V-component_of_CURRENTS"},"data":[0,0,0,0,0,0,0,0,0,0,0,0,0,0,0,0,0,0,0,0,0,0,0,0,0,0,0,0,0,0,0,0,0,0,0,0,0,0,0,0,0,0,0,0,0,0,0,0,0,0,0,0,0,0,0,0,0,0,-0.047,-0.0469,0,-0.0448,-0.0448,-0.0447,-0.0426,-0.0426,-0.0426,-0.0425,-0.0443,-0.0444,-0.0445,0,0,0,0,0,0,0,0,0,0,0,0,0,-0.054,-0.0539,-0.047,-0.0469,-0.0469,-0.0448,-0.0448,-0.0447,-0.0426,-0.0426,-0.0425,-0.0425,-0.0443,-0.0444,-0.0445,0,0,0,0,0,0,0,0,0,0,0,0,0,-0.0514,-0.0538,-0.047,-0.0455,-0.0453,-0.0448,-0.0448,-0.0447,-0.0427,-0.0426,-0.0425,-0.0425,-0.0442,-0.0444,-0.0445,-0.0465,0,0,-0.0449,-0.0449,0,0,0,0,0,0,0,0,-0.0516,-0.0512,-0.0457,-0.0456,-0.0454,-0.0438,-0.0479,-0.0455,-0.0427,-0.0438,-0.0425,-0.0424,-0.0444,-0.0445,-0.0444,-0.0466,-0.0467,-0.0449,-0.045,-0.045,-0.0451,0,0,0,0,0,0,0,-0.0517,-0.0513,-0.0463,-0.0457,-0.0455,-0.0465,-0.046,-0.0474,-0.0447,-0.0437,-0.0435,-0.043,-0.0444,-0.0443,-0.0445,-0.0467,-0.0449,-0.045,-0.0451,-0.0451,-0.0477,-0.0477,0,0,0,0,0,0,-0.0515,-0.0514,-0.0463,-0.0462,-0.0482,-0.0464,-0.0459,-0.0445,-0.0446,-0.0445,-0.0431,-0.0429,-0.0441,-0.0443,-0.0445,-0.0449,-0.045,-0.0451,-0.0452,-0.0478,-0.0477,-0.0477,0,0,0,0,0,0,-0.0516,-0.051,-0.0464,-0.0487,-0.0482,-0.0463,-0.0448,-0.0445,-0.044,-0.044,-0.044,-0.0428,-0.0441,-0.0444,-0.0456,-0.0451,-0.0452,-0.0453,-0.0478,-0.0478,-0.0477,-0.0471,0,0,0,0,0,0,-0.0518,-0.0511,-0.0506,-0.0486,-0.048,-0.0457,-0.0448,-0.0445,-0.0437,-0.0435,-0.0438,-0.0439,-0.0441,-0.0454,-0.0457,-0.0453,-0.0454,-0.0478,-0.0478,-0.0477,-0.0471,-0.0471,-0.047,0,0,0,0,0,-0.0521,-0.0504,-0.0506,-0.05,-0.0472,-0.0457,-0.0455,-0.0441,-0.0437,-0.0435,-0.0439,-0.0439,-0.0455,-0.0455,-0.0459,-0.0455,-0.0478,-0.0478,-0.0477,-0.0472,-0.0471,-0.047,0,0,0,0,0,0,-0.0527,-0.05,-0.0501,-0.0476,-0.047,-0.0453,-0.0444,-0.0443,-0.0444,-0.0441,-0.0446,-0.0448,-0.0455,-0.0459,-0.0459,-0.0461,-0.0463,-0.0464,-0.0457,-0.0457,-0.0456,-0.0422,-0.0455,0,0,0,0,0,-0.053,-0.0509,-0.0496,-0.0477,-0.0472,-0.0463,-0.0457,-0.0451,-0.0446,-0.0445,-0.0454,-0.0457,-0.0458,-0.0461,-0.0467,-0.0476,-0.0468,-0.0472,-0.0471,-0.0471,-0.0445,-0.048,-0.048,-0.0477,-0.0477,-0.0477,0,0,-0.0523,-0.0509,-0.0495,-0.0478,-0.0469,-0.0442,-0.0457,-0.0443,-0.0422,-0.0449,-0.0436,-0.0461,-0.0461,-0.0465,-0.0467,-0.0466,-0.046,-0.0471,-0.047,-0.0444,-0.048,-0.048,-0.0481,-0.0477,-0.0477,-0.0477,0,0,-0.0483,-0.0492,-0.0453,-0.0449,-0.0435,-0.0434,-0.043,-0.0424,-0.0424,-0.0429,-0.0434,-0.0456,-0.0466,-0.0463,-0.046,-0.0462,-0.046,-0.0467,-0.0434,-0.047,-0.047,-0.0471,-0.0426,-0.0422,-0.0464,-0.0464,-0.0464,0,-0.0478,-0.0423,-0.0443,-0.0407,-0.0386,-0.0424,-0.0374,-0.0388,-0.0392,-0.0381,-0.042,-0.0434,-0.0457,-0.0433,-0.044,-0.0459,-0.0456,-0.0439,-0.0469,-0.047,-0.0471,-0.0425,-0.0421,-0.0464,-0.0464,-0.0464,-0.0464,0,-0.0394,-0.0365,-0.0344,-0.0306,-0.0299,-0.027,-0.0284,-0.0289,-0.0313,-0.0322,-0.0333,-0.0389,-0.0383,-0.0413,-0.0429,-0.0433,-0.0419,-0.047,-0.0471,-0.0471,-0.0421,-0.0418,-0.0463,-0.0463,-0.0463,-0.0463,0,0,-0.0343,-0.0288,-0.0283,-0.0236,-0.0238,-0.0209,-0.0197,-0.0174,-0.0133,-0.0215,-0.0167,-0.0244,-0.0291,-0.0292,-0.0337,-0.0386,-0.0399,-0.043,-0.0433,-0.0382,-0.042,-0.034,-0.0327,-0.0473,-0.0473,-0.0474,-0.0371,0,-0.0264,-0.0157,-0.0162,-0.0074,-0.0017,-0.0052,-0.002,-0.0021,-0.0046,-0.0028,-0.0122,-0.0115,-0.0239,-0.024,-0.0315,-0.0363,-0.0395,-0.0417,-0.0429,-0.0427,-0.0356,-0.0324,-0.0259,-0.0157,-0.0367,-0.0367,-0.0366,0,-0.0182,-0.0109,0.0003,0.0083,0.0106,0.014,0.0201,0.0224,0.0209,0.0193,0.0138,0.0062,0.0003,-0.0123,-0.0229,-0.0242,-0.0322,-0.0389,-0.0388,-0.0309,-0.0341,-0.02,-0.0143,-0.0278,-0.036,-0.0361,-0.0361,0,-0.0114,-0.0005,0.0101,0.0125,0.0203,0.0249,0.0287,0.0296,0.0339,0.0334,0.0356,0.0247,0.0237,0.0066,-0.0084,-0.0162,-0.0181,-0.0301,-0.0294,-0.0287,-0.0225,-0.0212,-0.0297,-0.0379,-0.038,-0.038,-0.038,0,-0.0038,0.0037,0.015,0.0203,0.0345,0.0357,0.0471,0.0492,0.053,0.0592,0.0475,0.0502,0.0271,0.021,0.0015,-0.0077,-0.01,-0.025,-0.026,-0.0215,-0.0203,-0.0314,-0.0408,-0.0376,-0.0377,-0.0378,-0.0378,0,0.0,0.0056,0.0198,0.0332,0.0372,0.0479,0.0587,0.0659,0.0695,0.0774,0.0774,0.0732,0.067,0.0479,0.0294,0.0121,-0.0085,-0.0052,0.0068,0.0069,-0.01,-0.0194,-0.0297,-0.0375,-0.0043,-0.0041,-0.0038,0,0.0041,0.0123,0.0301,0.0382,0.0441,0.0582,0.0657,0.0729,0.0797,0.0899,0.0943,0.095,0.0934,0.0778,0.0526,0.0308,0.0072,0.0206,0.0035,-0.0057,-0.0172,-0.0317,-0.0389,0.0137,0.014,0.0143,0.0145,0,0.0158,0.021,0.0325,0.0477,0.0583,0.0719,0.0832,0.0911,0.0989,0.1057,0.1156,0.1169,0.11,0.096,0.0743,0.0538,0.0112,0.0256,0.0097,-0.0067,-0.0168,-0.0262,0.0067,0.017,0.0168,0.0166,0.0164,0.0163,0.0268,0.0353,0.0476,0.0606,0.0715,0.0833,0.0917,0.1017,0.1137,0.123,0.1287,0.1342,0.1268,0.0993,0.074,0.0407,0.0279,0.0216,0.0111,-0.0026,-0.012,0.0318,0.0432,0.0431,0.043,0.0429,0.0429,0,0.0426,0.0473,0.0592,0.0736,0.0824,0.0869,0.1008,0.1067,0.1172,0.1297,0.1373,0.1477,0.1276,0.103,0.0688,0.0339,0.0075,0.0121,-0.0104,-0.0176,0.0183,0.0171,0.0312,0.0312,0.0312,0.0312,0.0312,0.0313,0.0533,0.063,0.0645,0.0799,0.0873,0.0969,0.1037,0.1117,0.1211,0.1386,0.1514,0.1633,0.1668,0.093,0.0385,0.0186,-0.0196,-0.0261,-0.0453,-0.0228,-0.023,-0.0232,-0.0268,-0.0222,-0.0223,-0.0801,-0.0806,-0.081]}],[{"header":{"parameterUnit":"m.s-1","parameterCategory":2,"la1":30.2991,"la2":30.254,"lo1":-89.0895,"lo2":-89.0444,"dy":0.0017,"dx":0.0017,"nx":28,"ny":28,"refTime":"2024-08-15T09:00:00:Z","depth":"2","parameterNumber":2,"parameterNumberName":"U-component_of_CURRENTS"},"data":[0,0,0,0,0,0,0,0,0,0,0,0,0,0,0,0,0,0,0,0,0,0,0,0,0,0,0,0,0,0,0,0,0,0,0,0,0,0,0,0,0,0,0,0,0,0,0,0,0,0,0,0,0,0,0,0,0,0,-0.0209,-0.021,0,-0.0301,-0.0302,-0.0304,-0.0393,-0.0393,-0.0394,-0.0394,-0.0471,-0.0472,-0.0474,0,0,0,0,0,0,0,0,0,0,0,0,0,-0.0195,-0.0194,-0.0209,-0.021,-0.0211,-0.03,-0.0302,-0.0304,-0.0392,-0.0393,-0.0394,-0.0395,-0.047,-0.0472,-0.0474,0,0,0,0,0,0,0,0,0,0,0,0,0,-0.024,-0.0194,-0.0209,-0.0261,-0.0266,-0.03,-0.0302,-0.0304,-0.0392,-0.0393,-0.0394,-0.0395,-0.047,-0.0472,-0.0474,-0.0469,0,0,-0.0481,-0.0481,0,0,0,0,0,0,0,0,-0.0237,-0.0241,-0.0253,-0.0258,-0.0263,-0.0331,-0.0325,-0.0357,-0.0392,-0.0351,-0.0394,-0.0395,-0.0418,-0.0425,-0.0448,-0.0472,-0.0476,-0.0481,-0.0482,-0.0483,-0.0484,0,0,0,0,0,0,0,-0.0234,-0.0238,-0.0251,-0.0253,-0.026,-0.0308,-0.0315,-0.0332,-0.0382,-0.0354,-0.0359,-0.036,-0.0422,-0.0446,-0.045,-0.0477,-0.0481,-0.0483,-0.0484,-0.0485,-0.0486,-0.0484,0,0,0,0,0,0,-0.0206,-0.0235,-0.0248,-0.0254,-0.0246,-0.0307,-0.0315,-0.0313,-0.0383,-0.0392,-0.0359,-0.0364,-0.0442,-0.0448,-0.0453,-0.0432,-0.0483,-0.0485,-0.0486,-0.0487,-0.0485,-0.0484,0,0,0,0,0,0,-0.0205,-0.0206,-0.0245,-0.0242,-0.025,-0.0305,-0.0302,-0.0314,-0.0344,-0.0385,-0.0397,-0.0376,-0.0443,-0.045,-0.047,-0.0436,-0.0486,-0.0488,-0.0488,-0.0486,-0.0485,-0.04,0,0,0,0,0,0,-0.0204,-0.0205,-0.0197,-0.024,-0.0248,-0.0261,-0.0301,-0.0315,-0.034,-0.0347,-0.0403,-0.0412,-0.0444,-0.0466,-0.0472,-0.044,-0.049,-0.049,-0.0488,-0.0485,-0.0405,-0.0396,-0.0388,0,0,0,0,0,-0.0203,-0.0189,-0.0196,-0.0198,-0.0234,-0.026,-0.0269,-0.0316,-0.0339,-0.0349,-0.0386,-0.041,-0.0454,-0.0468,-0.0474,-0.0442,-0.0491,-0.0488,-0.0485,-0.0409,-0.0398,-0.0388,0,0,0,0,0,0,-0.0183,-0.0197,-0.0206,-0.0198,-0.0222,-0.0272,-0.0284,-0.0311,-0.0351,-0.036,-0.0404,-0.0414,-0.0416,-0.0441,-0.0454,-0.0434,-0.0472,-0.047,-0.0411,-0.0401,-0.0393,-0.0384,-0.0492,0,0,0,0,0,-0.0168,-0.0162,-0.0186,-0.0181,-0.0189,-0.0235,-0.0251,-0.0281,-0.0316,-0.0337,-0.0376,-0.0403,-0.0408,-0.0416,-0.0437,-0.0429,-0.0409,-0.0409,-0.0401,-0.0394,-0.039,-0.0348,-0.0335,-0.0474,-0.0475,-0.0475,0,0,-0.0161,-0.0165,-0.0164,-0.0175,-0.0202,-0.021,-0.025,-0.0271,-0.0274,-0.0335,-0.0359,-0.0382,-0.0401,-0.0396,-0.0396,-0.0413,-0.033,-0.039,-0.0383,-0.0384,-0.0344,-0.033,-0.0318,-0.0473,-0.0473,-0.0473,0,0,-0.0143,-0.0144,-0.0137,-0.0151,-0.0173,-0.0194,-0.0195,-0.0243,-0.026,-0.0274,-0.0309,-0.0315,-0.0341,-0.0346,-0.0346,-0.0302,-0.0292,-0.0301,-0.0249,-0.0207,-0.0195,-0.0185,-0.0082,-0.0064,-0.0293,-0.0292,-0.0292,0,-0.0138,-0.0121,-0.0141,-0.014,-0.0144,-0.0181,-0.0179,-0.0195,-0.0245,-0.0245,-0.0269,-0.0291,-0.0311,-0.0283,-0.0266,-0.0282,-0.0239,-0.0284,-0.0195,-0.0185,-0.0175,-0.0074,-0.0054,-0.0288,-0.0289,-0.0289,-0.0289,0,-0.0121,-0.0107,-0.0105,-0.0109,-0.0118,-0.0121,-0.0137,-0.0148,-0.0165,-0.0183,-0.0174,-0.0202,-0.0212,-0.0205,-0.022,-0.016,-0.0139,-0.0191,-0.0218,-0.0156,-0.0052,-0.0033,-0.0282,-0.0283,-0.0285,-0.0286,0,0,-0.0111,-0.0095,-0.0093,-0.0085,-0.0098,-0.0106,-0.0093,-0.0089,-0.0083,-0.0105,-0.0084,-0.0084,-0.0106,-0.0107,-0.0124,-0.0086,0.0039,-0.0101,-0.0101,0.0008,0.019,0.0152,0.0169,0.0004,0.0006,0.0008,0.0258,0,-0.0092,-0.0067,-0.0066,-0.0048,-0.0039,-0.0054,-0.0042,-0.0046,-0.0047,-0.004,-0.0035,-0.0027,-0.0062,-0.0056,-0.0023,0.0011,0.0083,-0.002,0.0106,0.0111,0.0074,0.0186,0.0146,0.0358,0.0276,0.0279,0.0282,0,-0.0071,-0.0056,-0.0027,-0.0008,-0.0007,-0.0005,0.001,0.0014,0.0029,0.0031,0.0044,0.0038,0.0101,0.005,0.0173,0.0111,0.0166,0.0197,0.0206,0.0145,0.0106,0.027,0.0395,0.0313,0.0311,0.0308,0.0306,0,-0.0048,-0.0023,0.0009,0.001,0.0017,0.0029,0.003,0.0033,0.0046,0.0081,0.0105,0.0148,0.0191,0.0247,0.0309,0.0259,0.0452,0.0385,0.0419,0.042,0.0395,0.0388,0.0487,0.0487,0.0486,0.0486,0.0485,0,-0.0021,0.0002,0.0021,0.0029,0.0049,0.0046,0.0065,0.007,0.0094,0.0121,0.0141,0.0183,0.0239,0.0335,0.0376,0.0478,0.0517,0.0467,0.0478,0.0429,0.0421,0.0358,0.0339,0.0495,0.0493,0.0491,0.049,0,-0.0003,0.0017,0.0042,0.0056,0.006,0.0066,0.0077,0.0091,0.0121,0.0168,0.0193,0.0263,0.0379,0.0453,0.0576,0.0577,0.0663,0.0685,0.0654,0.0653,0.0602,0.0585,0.0774,0.0774,0.0775,0.0775,0.0776,0,0.0009,0.0032,0.005,0.0056,0.0061,0.0072,0.0078,0.0096,0.0115,0.0207,0.0238,0.0367,0.0436,0.0622,0.0658,0.0773,0.0736,0.0789,0.0648,0.0638,0.0631,0.0613,0.0596,0.0702,0.0701,0.0701,0.0701,0,0.002,0.0033,0.0041,0.0058,0.0066,0.0081,0.0097,0.0118,0.0157,0.0218,0.0315,0.0389,0.0538,0.0628,0.0748,0.077,0.0755,0.0784,0.0823,0.0589,0.0577,0.0566,0.0551,0.0699,0.0699,0.07,0.07,0.07,0.0017,0.0023,0.0039,0.0053,0.0069,0.0093,0.0111,0.0148,0.0197,0.0312,0.0363,0.0483,0.0552,0.0693,0.0733,0.0751,0.0758,0.0741,0.074,0.0739,0.064,0.0623,0.0743,0.0743,0.0744,0.0744,0.0744,0,0.0005,0.0018,0.0036,0.0055,0.0084,0.0092,0.0129,0.0164,0.0236,0.0365,0.0468,0.05,0.0602,0.0661,0.0699,0.0716,0.0674,0.0684,0.0647,0.065,0.0652,0.0545,0.0626,0.0625,0.0625,0.0625,0,0,-0.0003,0.0005,0.0022,0.0065,0.009,0.0133,0.0159,0.0223,0.0312,0.0419,0.0505,0.063,0.0665,0.0656,0.0666,0.0674,0.0647,0.0636,0.0734,0.0696,0.0697,0.0691,0.0529,0,0,0,0,0]},{"header":{"parameterUnit":"m.s-1","parameterCategory":2,"la1":30.2991,"la2":30.254,"lo1":-89.0895,"lo2":-89.0444,"dy":0.0017,"dx":0.0017,"nx":28,"ny":28,"refTime":"2024-08-15T09:00:00:Z","depth":"2","parameterNumber":3,"parameterNumberName":"V-component_of_CURRENTS"},"data":[0,0,0,0,0,0,0,0,0,0,0,0,0,0,0,0,0,0,0,0,0,0,0,0,0,0,0,0,0,0,0,0,0,0,0,0,0,0,0,0,0,0,0,0,0,0,0,0,0,0,0,0,0,0,0,0,0,0,-0.0478,-0.0478,0,-0.0473,-0.0472,-0.0472,-0.044,-0.044,-0.0439,-0.0439,-0.027,-0.0265,-0.0261,0,0,0,0,0,0,0,0,0,0,0,0,0,-0.0484,-0.0483,-0.0478,-0.0478,-0.0478,-0.0473,-0.0472,-0.0472,-0.044,-0.044,-0.0439,-0.0439,-0.0271,-0.0266,-0.0261,0,0,0,0,0,0,0,0,0,0,0,0,0,-0.0476,-0.0483,-0.0478,-0.0465,-0.0465,-0.0473,-0.0472,-0.0472,-0.044,-0.044,-0.0439,-0.0439,-0.0273,-0.0266,-0.026,-0.0231,0,0,-0.0241,-0.0238,0,0,0,0,0,0,0,0,-0.0476,-0.0475,-0.0467,-0.0466,-0.0466,-0.0461,-0.0413,-0.0385,-0.044,-0.0444,-0.0439,-0.0439,-0.0322,-0.0311,-0.0307,-0.0223,-0.0216,-0.024,-0.0237,-0.0234,-0.0232,0,0,0,0,0,0,0,-0.0477,-0.0475,-0.0471,-0.0467,-0.0467,-0.0469,-0.0466,-0.0408,-0.0379,-0.0444,-0.0443,-0.045,-0.0319,-0.0313,-0.0302,-0.0214,-0.0241,-0.0235,-0.0231,-0.0229,-0.0037,-0.0036,0,0,0,0,0,0,-0.0486,-0.0475,-0.0471,-0.0471,-0.0475,-0.047,-0.0467,-0.0459,-0.0383,-0.0374,-0.0451,-0.0449,-0.0324,-0.031,-0.0296,-0.0229,-0.0234,-0.0228,-0.0224,-0.0039,-0.0037,-0.0036,0,0,0,0,0,0,-0.0486,-0.0485,-0.0471,-0.0478,-0.0477,-0.047,-0.0462,-0.0459,-0.0444,-0.0391,-0.0377,-0.0438,-0.0323,-0.0305,-0.0246,-0.0223,-0.0225,-0.0219,-0.004,-0.0038,-0.0036,-0.0112,0,0,0,0,0,0,-0.0486,-0.0485,-0.0477,-0.0478,-0.0477,-0.0468,-0.0463,-0.046,-0.0452,-0.0449,-0.0375,-0.036,-0.0322,-0.0256,-0.0239,-0.0214,-0.0215,-0.0042,-0.0039,-0.0037,-0.0111,-0.0113,-0.0115,0,0,0,0,0,-0.0486,-0.047,-0.0476,-0.0476,-0.0468,-0.0469,-0.0467,-0.0459,-0.0452,-0.0442,-0.0401,-0.0362,-0.0227,-0.025,-0.0231,-0.0204,-0.0043,-0.004,-0.0037,-0.0111,-0.0113,-0.0114,0,0,0,0,0,0,-0.0463,-0.0467,-0.0472,-0.0457,-0.0464,-0.0465,-0.0459,-0.0455,-0.0419,-0.041,-0.0356,-0.0338,-0.0274,-0.0225,-0.0252,-0.0138,-0.0123,-0.0116,-0.0185,-0.0186,-0.0188,-0.0209,-0.0209,0,0,0,0,0,-0.046,-0.0452,-0.0461,-0.0452,-0.0455,-0.0458,-0.0456,-0.0453,-0.043,-0.0414,-0.0366,-0.0304,-0.0249,-0.021,-0.0153,-0.0095,-0.0096,-0.0058,-0.006,-0.0062,-0.0063,-0.0089,-0.0096,-0.0026,-0.0026,-0.0026,0,0,-0.0454,-0.0454,-0.0451,-0.0449,-0.0453,-0.0449,-0.0453,-0.045,-0.0439,-0.0397,-0.0351,-0.0309,-0.0235,-0.0179,-0.0143,-0.0134,-0.0077,-0.0058,-0.0061,-0.0061,-0.0087,-0.0095,-0.0102,-0.0024,-0.0024,-0.0025,0,0,-0.0439,-0.0436,-0.0427,-0.0429,-0.0437,-0.044,-0.0438,-0.0433,-0.0421,-0.0385,-0.0352,-0.0313,-0.0211,-0.0178,-0.0142,-0.0113,-0.009,-0.0068,-0.009,-0.0116,-0.0124,-0.013,-0.0139,-0.0145,-0.0065,-0.0065,-0.0065,0,-0.0428,-0.042,-0.0426,-0.0417,-0.042,-0.0433,-0.0427,-0.0418,-0.0393,-0.0382,-0.0369,-0.0271,-0.0217,-0.0167,-0.0156,-0.012,-0.0125,-0.0098,-0.0125,-0.0131,-0.0137,-0.0144,-0.015,-0.0069,-0.0068,-0.0068,-0.0068,0,-0.0408,-0.0403,-0.0399,-0.0394,-0.0395,-0.0393,-0.0395,-0.0385,-0.0375,-0.0367,-0.0324,-0.0281,-0.0224,-0.0196,-0.0164,-0.0156,-0.0144,-0.0137,-0.0138,-0.015,-0.0154,-0.016,-0.0073,-0.0072,-0.0071,-0.007,0,0,-0.0369,-0.0383,-0.0379,-0.0383,-0.0383,-0.0384,-0.0371,-0.0367,-0.036,-0.0338,-0.0328,-0.026,-0.0256,-0.0215,-0.0181,-0.0199,-0.0245,-0.0182,-0.0182,-0.022,-0.0295,-0.0311,-0.0318,-0.0254,-0.0256,-0.0257,-0.0283,0,-0.0351,-0.0344,-0.035,-0.0345,-0.0345,-0.0355,-0.0343,-0.034,-0.0333,-0.0324,-0.031,-0.0279,-0.0256,-0.0238,-0.0255,-0.0241,-0.0262,-0.0237,-0.0249,-0.0249,-0.0288,-0.0326,-0.0323,-0.0349,-0.0289,-0.029,-0.029,0,-0.0317,-0.0326,-0.032,-0.0333,-0.0333,-0.0327,-0.0327,-0.0318,-0.0316,-0.0311,-0.0305,-0.0294,-0.0295,-0.0288,-0.0307,-0.0292,-0.0296,-0.0301,-0.0302,-0.0296,-0.0276,-0.0322,-0.0361,-0.03,-0.0299,-0.0298,-0.0298,0,-0.0287,-0.0295,-0.0296,-0.0298,-0.0313,-0.031,-0.0313,-0.031,-0.0308,-0.0312,-0.0313,-0.0318,-0.0314,-0.0342,-0.034,-0.033,-0.0377,-0.0364,-0.0383,-0.0383,-0.037,-0.0368,-0.0398,-0.0398,-0.0398,-0.0398,-0.0398,0,-0.0255,-0.0251,-0.0286,-0.0285,-0.0293,-0.0296,-0.0294,-0.0299,-0.0302,-0.0294,-0.0307,-0.0306,-0.0332,-0.0353,-0.0362,-0.0392,-0.0396,-0.04,-0.0402,-0.0392,-0.0392,-0.0333,-0.0325,-0.0399,-0.0399,-0.0399,-0.0399,0,-0.0218,-0.023,-0.0245,-0.0274,-0.0279,-0.0285,-0.0298,-0.0295,-0.0296,-0.0292,-0.0297,-0.0308,-0.033,-0.0359,-0.0394,-0.0413,-0.0447,-0.0453,-0.0431,-0.0432,-0.0427,-0.0422,-0.0489,-0.049,-0.0491,-0.0492,-0.0492,0,-0.0202,-0.0206,-0.025,-0.0262,-0.0275,-0.0285,-0.0287,-0.0293,-0.0289,-0.0283,-0.028,-0.0302,-0.0306,-0.0376,-0.0422,-0.047,-0.0455,-0.0502,-0.049,-0.0447,-0.0442,-0.0435,-0.0429,-0.0493,-0.0494,-0.0494,-0.0495,0,-0.0206,-0.022,-0.0247,-0.0265,-0.0274,-0.0285,-0.0286,-0.0283,-0.0271,-0.0258,-0.0241,-0.0249,-0.031,-0.0361,-0.0441,-0.0475,-0.0501,-0.0514,-0.0491,-0.0473,-0.0454,-0.0448,-0.0441,-0.0499,-0.0498,-0.0498,-0.0498,-0.0498,-0.0234,-0.0248,-0.0277,-0.0285,-0.0287,-0.0275,-0.0263,-0.0246,-0.0224,-0.0169,-0.0199,-0.0162,-0.0275,-0.0345,-0.0436,-0.0513,-0.0519,-0.054,-0.0538,-0.0535,-0.0533,-0.0517,-0.0572,-0.0572,-0.0572,-0.0572,-0.0572,0,-0.0288,-0.0282,-0.0292,-0.0298,-0.028,-0.0275,-0.0252,-0.0217,-0.0161,-0.0101,-0.0069,-0.0115,-0.0208,-0.0295,-0.042,-0.0532,-0.0525,-0.0549,-0.0517,-0.0515,-0.0512,-0.0507,-0.054,-0.054,-0.0539,-0.0539,0,0,-0.0327,-0.0335,-0.0316,-0.0291,-0.0272,-0.023,-0.0203,-0.014,-0.008,0.0009,0.0069,0.0035,-0.0128,-0.0203,-0.0373,-0.0438,-0.0439,-0.045,-0.0474,-0.0418,-0.0412,-0.0518,-0.051,0,0,0,0,0]}],[{"header":{"parameterUnit":"m.s-1","parameterCategory":2,"la1":30.2991,"la2":30.254,"lo1":-89.0895,"lo2":-89.0444,"dy":0.0017,"dx":0.0017,"nx":28,"ny":28,"refTime":"2024-08-15T09:00:00:Z","depth":"4","parameterNumber":2,"parameterNumberName":"U-component_of_CURRENTS"},"data":[0,0,0,0,0,0,0,0,0,0,0,0,0,0,0,0,0,0,0,0,0,0,0,0,0,0,0,0,0,0,0,0,0,0,0,0,0,0,0,0,0,0,0,0,0,0,0,0,0,0,0,0,0,0,0,0,0,0,-0.0128,-0.0128,0,-0.0114,-0.0114,-0.0114,-0.0098,-0.0098,-0.0097,-0.0097,-0.0115,-0.0115,-0.0116,0,0,0,0,0,0,0,0,0,0,0,0,0,-0.0144,-0.0144,-0.0129,-0.0128,-0.0128,-0.0114,-0.0114,-0.0114,-0.0098,-0.0098,-0.0097,-0.0097,-0.0114,-0.0115,-0.0116,0,0,0,0,0,0,0,0,0,0,0,0,0,-0.0135,-0.0144,-0.0129,-0.0118,-0.0117,-0.0114,-0.0114,-0.0114,-0.0098,-0.0098,-0.0097,-0.0097,-0.0114,-0.0115,-0.0116,-0.0133,0,0,-0.012,-0.012,0,0,0,0,0,0,0,0,-0.0136,-0.0135,-0.012,-0.0118,-0.0117,-0.0107,-0.0126,-0.0122,-0.0098,-0.0106,-0.0097,-0.0096,-0.0115,-0.0116,-0.0115,-0.0133,-0.0134,-0.012,-0.0121,-0.0121,-0.0121,0,0,0,0,0,0,0,-0.0136,-0.0135,-0.0124,-0.0119,-0.0118,-0.0114,-0.0113,-0.0125,-0.0114,-0.0105,-0.0104,-0.0101,-0.0114,-0.0114,-0.0115,-0.0134,-0.012,-0.0121,-0.0122,-0.0122,-0.0152,-0.0152,0,0,0,0,0,0,-0.0137,-0.0136,-0.0124,-0.0123,-0.0125,-0.0114,-0.0113,-0.0111,-0.0113,-0.0113,-0.0102,-0.01,-0.0112,-0.0114,-0.0116,-0.0118,-0.0121,-0.0122,-0.0123,-0.0151,-0.0152,-0.0152,0,0,0,0,0,0,-0.0137,-0.0136,-0.0125,-0.0128,-0.0127,-0.0115,-0.0113,-0.0111,-0.0107,-0.011,-0.011,-0.0099,-0.0112,-0.0114,-0.0123,-0.012,-0.0123,-0.0124,-0.0151,-0.0151,-0.0152,-0.0135,0,0,0,0,0,0,-0.0138,-0.0136,-0.0135,-0.0129,-0.0126,-0.0117,-0.0113,-0.0111,-0.0106,-0.0105,-0.0109,-0.011,-0.0112,-0.0122,-0.0124,-0.0121,-0.0125,-0.0151,-0.0151,-0.0152,-0.0135,-0.0135,-0.0134,0,0,0,0,0,-0.0139,-0.0138,-0.0135,-0.0134,-0.0125,-0.0117,-0.0115,-0.0106,-0.0107,-0.0102,-0.0108,-0.011,-0.0125,-0.0123,-0.0126,-0.0123,-0.0151,-0.0151,-0.0152,-0.0136,-0.0135,-0.0134,0,0,0,0,0,0,-0.0141,-0.0136,-0.0133,-0.013,-0.0121,-0.0113,-0.011,-0.0107,-0.0108,-0.0108,-0.0114,-0.0116,-0.012,-0.0128,-0.0126,-0.0133,-0.0137,-0.0138,-0.0124,-0.0123,-0.0122,-0.0111,-0.0126,0,0,0,0,0,-0.0142,-0.0141,-0.0133,-0.013,-0.0127,-0.012,-0.0116,-0.011,-0.0109,-0.0108,-0.011,-0.0117,-0.0125,-0.0129,-0.0134,-0.0144,-0.0144,-0.0143,-0.0143,-0.0142,-0.0135,-0.014,-0.0138,-0.0152,-0.0152,-0.0152,0,0,-0.0142,-0.0139,-0.0137,-0.013,-0.0125,-0.0117,-0.0117,-0.0109,-0.0102,-0.0112,-0.0107,-0.0114,-0.0127,-0.013,-0.0133,-0.0136,-0.0138,-0.0142,-0.0141,-0.0135,-0.014,-0.0138,-0.0137,-0.0153,-0.0153,-0.0152,0,0,-0.0135,-0.0138,-0.0132,-0.0127,-0.0118,-0.0114,-0.0112,-0.0103,-0.0099,-0.0098,-0.0103,-0.0107,-0.0119,-0.0121,-0.0128,-0.0129,-0.0133,-0.0134,-0.0121,-0.0126,-0.0125,-0.0124,-0.0119,-0.0118,-0.0134,-0.0134,-0.0134,0,-0.0135,-0.0126,-0.0128,-0.012,-0.0115,-0.0113,-0.0103,-0.0101,-0.0094,-0.0092,-0.0093,-0.0105,-0.0112,-0.0121,-0.0116,-0.0126,-0.0128,-0.0123,-0.0124,-0.0123,-0.0122,-0.0118,-0.0117,-0.0134,-0.0134,-0.0134,-0.0134,0,-0.0121,-0.0115,-0.0112,-0.0103,-0.0098,-0.009,-0.0087,-0.0081,-0.008,-0.0076,-0.0079,-0.009,-0.0096,-0.01,-0.0108,-0.0108,-0.011,-0.0121,-0.0124,-0.012,-0.0116,-0.0114,-0.0132,-0.0133,-0.0133,-0.0133,0,0,-0.0117,-0.0104,-0.0102,-0.0093,-0.0088,-0.0081,-0.0075,-0.0066,-0.0061,-0.006,-0.0057,-0.0066,-0.0072,-0.008,-0.0093,-0.0094,-0.0086,-0.0102,-0.0103,-0.0093,-0.009,-0.0027,-0.002,-0.01,-0.01,-0.0099,-0.0088,0,-0.0103,-0.0083,-0.0083,-0.0065,-0.0054,-0.0056,-0.005,-0.0044,-0.0044,-0.0042,-0.0055,-0.006,-0.0068,-0.0073,-0.0076,-0.0088,-0.0083,-0.0088,-0.01,-0.0099,-0.0041,-0.0017,-0.0099,-0.0087,-0.0087,-0.0086,-0.0086,0,-0.0084,-0.0075,-0.0054,-0.0042,-0.0038,-0.003,-0.0021,-0.0016,-0.0019,-0.0021,-0.003,-0.0043,-0.005,-0.0059,-0.0067,-0.0071,-0.0073,-0.0079,-0.0079,-0.0024,-0.0035,-0.0094,-0.0084,-0.0084,-0.0084,-0.0085,-0.0085,0,-0.0069,-0.0054,-0.0036,-0.0031,-0.002,-0.0012,-0.0009,-0.0007,-0.0005,-0.0012,-0.0011,-0.0028,-0.0033,-0.0046,-0.005,-0.0063,-0.0051,-0.0076,-0.002,-0.0016,-0.0085,-0.0086,-0.0071,-0.0071,-0.0071,-0.0071,-0.0071,0,-0.0052,-0.0037,-0.0027,-0.0016,-0.0002,0.0001,0.0011,0.0013,0.0009,0.0015,-0.0002,0.0003,-0.0028,-0.0028,-0.0041,-0.0014,-0.0045,-0.0002,-0.0003,-0.0078,-0.0079,-0.0084,-0.0085,-0.0071,-0.0071,-0.0071,-0.0071,0,-0.0033,-0.0026,-0.0007,0.0005,0.0007,0.0016,0.0018,0.0023,0.0024,0.0029,0.0026,0.0026,0.0044,0.0026,0.0016,0.0014,0.0019,0.0036,-0.0026,-0.0033,0.0052,0.0051,0.0094,0.0097,0.0099,0.01,0.0102,0,-0.0022,-0.0005,0.0006,0.0009,0.0014,0.0022,0.0024,0.0026,0.003,0.0051,0.0055,0.008,0.0082,0.0119,0.0099,0.0096,0.0096,0.009,0.0063,0.0077,0.0071,0.0067,0.0063,0.0105,0.0106,0.0106,0.0107,0,-0.0001,0.0007,0.0014,0.0019,0.0022,0.0029,0.0036,0.0044,0.0053,0.0051,0.0098,0.012,0.0156,0.016,0.0173,0.0161,0.0084,0.0111,0.0106,0.008,0.0091,0.0082,0.0076,0.0114,0.0113,0.0112,0.0112,0,0.0008,0.0011,0.0019,0.0024,0.0028,0.0042,0.0045,0.0067,0.0077,0.0103,0.0123,0.0155,0.0165,0.0197,0.02,0.0211,0.0202,0.0178,0.0169,0.0161,0.018,0.0203,0.0276,0,0,0,0,0,0.0013,0.0016,0.0023,0.0029,0.0038,0.0045,0.0055,0.0058,0.0071,0.0111,0.0121,0.016,0.0204,0.0218,0.0243,0.0226,0.0192,0.0254,0.0157,0.0153,0.0145,0.0162,0,0,0,0,0,0,0.0011,0.0016,0.0021,0.0037,0.0049,0.006,0.0072,0.0081,0.0108,0.0125,0.0151,0.0163,0.0204,0.0194,0.0244,0.0248,0.0189,0.027,0.0271,0.0158,0.0151,0.0144,0.0159,0,0,0,0,0]},{"header":{"parameterUnit":"m.s-1","parameterCategory":2,"la1":30.2991,"la2":30.254,"lo1":-89.0895,"lo2":-89.0444,"dy":0.0017,"dx":0.0017,"nx":28,"ny":28,"refTime":"2024-08-15T09:00:00:Z","depth":"4","parameterNumber":3,"parameterNumberName":"V-component_of_CURRENTS"},"data":[0,0,0,0,0,0,0,0,0,0,0,0,0,0,0,0,0,0,0,0,0,0,0,0,0,0,0,0,0,0,0,0,0,0,0,0,0,0,0,0,0,0,0,0,0,0,0,0,0,0,0,0,0,0,0,0,0,0,-0.0281,-0.0281,0,-0.0321,-0.0321,-0.0321,-0.0338,-0.0338,-0.0339,-0.0339,-0.0339,-0.0339,-0.0339,0,0,0,0,0,0,0,0,0,0,0,0,0,-0.0241,-0.0241,-0.0281,-0.0281,-0.0282,-0.032,-0.0321,-0.0321,-0.0338,-0.0338,-0.0339,-0.0339,-0.0339,-0.0339,-0.0339,0,0,0,0,0,0,0,0,0,0,0,0,0,-0.0266,-0.0241,-0.0281,-0.0296,-0.0298,-0.032,-0.0321,-0.0321,-0.0338,-0.0338,-0.0339,-0.0339,-0.0339,-0.0339,-0.0339,-0.0338,0,0,-0.0339,-0.0339,0,0,0,0,0,0,0,0,-0.0265,-0.0267,-0.0293,-0.0295,-0.0297,-0.0325,-0.0307,-0.0325,-0.0338,-0.0322,-0.0339,-0.0339,-0.0331,-0.0332,-0.0338,-0.0338,-0.0338,-0.0339,-0.0339,-0.0339,-0.0339,0,0,0,0,0,0,0,-0.0263,-0.0266,-0.0296,-0.0294,-0.0296,-0.0308,-0.0311,-0.0311,-0.0324,-0.0323,-0.0325,-0.0331,-0.0332,-0.0338,-0.0338,-0.0338,-0.0339,-0.0339,-0.0339,-0.0339,-0.037,-0.0371,0,0,0,0,0,0,-0.0259,-0.0264,-0.0294,-0.0297,-0.0282,-0.0309,-0.0312,-0.0315,-0.0325,-0.0328,-0.0331,-0.0332,-0.0338,-0.0338,-0.0338,-0.0353,-0.0339,-0.0339,-0.0339,-0.0369,-0.037,-0.0371,0,0,0,0,0,0,-0.0258,-0.0261,-0.0293,-0.0282,-0.0287,-0.0309,-0.0313,-0.0316,-0.0328,-0.0332,-0.0333,-0.0339,-0.0339,-0.0338,-0.0344,-0.0352,-0.0339,-0.0339,-0.0368,-0.037,-0.0371,-0.0372,0,0,0,0,0,0,-0.0256,-0.026,-0.0261,-0.0282,-0.0288,-0.0308,-0.0313,-0.0317,-0.0331,-0.0333,-0.0339,-0.0339,-0.0339,-0.0344,-0.0344,-0.0352,-0.0339,-0.0367,-0.0369,-0.037,-0.0371,-0.0373,-0.0375,0,0,0,0,0,-0.0255,-0.0257,-0.0261,-0.0265,-0.0288,-0.0308,-0.0312,-0.0327,-0.0332,-0.0337,-0.0343,-0.0339,-0.0355,-0.0345,-0.0344,-0.0352,-0.0366,-0.0368,-0.037,-0.037,-0.0372,-0.0375,0,0,0,0,0,0,-0.024,-0.026,-0.0264,-0.0272,-0.0289,-0.0311,-0.0322,-0.0329,-0.034,-0.0343,-0.0343,-0.0343,-0.0355,-0.0355,-0.0344,-0.0369,-0.0363,-0.0365,-0.0362,-0.0365,-0.0367,-0.0365,-0.0339,0,0,0,0,0,-0.0237,-0.0246,-0.0265,-0.0272,-0.0282,-0.0302,-0.0312,-0.0323,-0.0336,-0.0341,-0.0346,-0.0355,-0.0363,-0.0364,-0.0373,-0.0378,-0.0375,-0.0387,-0.0389,-0.0391,-0.0392,-0.0367,-0.0366,-0.0378,-0.0378,-0.0377,0,0,-0.0235,-0.0246,-0.0252,-0.027,-0.0287,-0.0302,-0.0308,-0.0328,-0.0341,-0.0338,-0.0356,-0.0361,-0.0368,-0.038,-0.0385,-0.0379,-0.0396,-0.0393,-0.0395,-0.0394,-0.0369,-0.0368,-0.0366,-0.0379,-0.0379,-0.0378,0,0,-0.0239,-0.0246,-0.0257,-0.0269,-0.0293,-0.0307,-0.0312,-0.0336,-0.0347,-0.036,-0.0368,-0.0376,-0.0386,-0.0394,-0.0398,-0.0416,-0.0409,-0.0424,-0.0428,-0.0404,-0.0402,-0.04,-0.0428,-0.0428,-0.0422,-0.0422,-0.0422,0,-0.0236,-0.0252,-0.0263,-0.0276,-0.0292,-0.0308,-0.0327,-0.0338,-0.036,-0.0371,-0.0366,-0.039,-0.0392,-0.0409,-0.0417,-0.0419,-0.0418,-0.0413,-0.0404,-0.0402,-0.04,-0.0428,-0.0429,-0.0422,-0.0422,-0.0422,-0.0422,0,-0.025,-0.0263,-0.0272,-0.0295,-0.031,-0.033,-0.0348,-0.0364,-0.0376,-0.0385,-0.0404,-0.0405,-0.0418,-0.0423,-0.0422,-0.0423,-0.0433,-0.0408,-0.0391,-0.0398,-0.0429,-0.0429,-0.0423,-0.0422,-0.0422,-0.0422,0,0,-0.0246,-0.0278,-0.0281,-0.0298,-0.0324,-0.0342,-0.0363,-0.0391,-0.0407,-0.0415,-0.0431,-0.0441,-0.0439,-0.0444,-0.0445,-0.0425,-0.0421,-0.041,-0.0408,-0.0428,-0.0402,-0.0403,-0.0404,-0.0381,-0.038,-0.038,-0.0439,0,-0.0259,-0.029,-0.0301,-0.0334,-0.0355,-0.0374,-0.0393,-0.0416,-0.0428,-0.0443,-0.0444,-0.0457,-0.0447,-0.0453,-0.043,-0.0425,-0.0417,-0.041,-0.04,-0.0402,-0.0391,-0.0402,-0.0378,-0.044,-0.044,-0.044,-0.044,0,-0.0266,-0.0293,-0.0327,-0.0364,-0.0375,-0.0395,-0.0435,-0.0452,-0.047,-0.0476,-0.048,-0.0479,-0.0482,-0.0452,-0.0442,-0.0435,-0.042,-0.0408,-0.0409,-0.0405,-0.0401,-0.0424,-0.0441,-0.0441,-0.0441,-0.0441,-0.0441,0,-0.0266,-0.0306,-0.0339,-0.0351,-0.0394,-0.0418,-0.0442,-0.0467,-0.0475,-0.0497,-0.0496,-0.0502,-0.05,-0.0474,-0.0467,-0.0445,-0.0449,-0.0415,-0.0412,-0.0415,-0.0394,-0.0395,-0.0391,-0.0391,-0.0391,-0.039,-0.039,0,-0.0273,-0.0296,-0.0345,-0.0365,-0.0403,-0.043,-0.0458,-0.0482,-0.0495,-0.0491,-0.051,-0.05,-0.0493,-0.0496,-0.048,-0.0467,-0.0463,-0.0422,-0.0419,-0.0401,-0.0402,-0.0397,-0.0397,-0.0393,-0.0392,-0.0392,-0.0391,0,-0.0264,-0.0291,-0.033,-0.0388,-0.0402,-0.0431,-0.0459,-0.0467,-0.0491,-0.0484,-0.0489,-0.0501,-0.0503,-0.0521,-0.05,-0.0488,-0.0477,-0.0471,-0.0504,-0.0501,-0.0461,-0.046,-0.0468,-0.0469,-0.0469,-0.0469,-0.0469,0,-0.0265,-0.0288,-0.0344,-0.0357,-0.0384,-0.042,-0.043,-0.0461,-0.0458,-0.0469,-0.0457,-0.0478,-0.048,-0.0483,-0.0496,-0.0513,-0.0489,-0.0514,-0.0435,-0.0467,-0.0464,-0.0463,-0.0462,-0.047,-0.047,-0.047,-0.047,0,-0.0281,-0.0298,-0.0329,-0.035,-0.0368,-0.0385,-0.0404,-0.0399,-0.0415,-0.0431,-0.0409,-0.0421,-0.0435,-0.0451,-0.0492,-0.0485,-0.0514,-0.0515,-0.0513,-0.0439,-0.0469,-0.0465,-0.0464,-0.0471,-0.0471,-0.0471,-0.0471,0,-0.0296,-0.0301,-0.0329,-0.034,-0.0352,-0.0351,-0.0366,-0.0359,-0.0362,-0.0368,-0.0357,-0.0383,-0.0404,-0.0436,-0.046,-0.0482,-0.045,-0.0434,-0.0435,-0.0434,-0.0397,-0.0427,-0.0417,0,0,0,0,0,-0.0314,-0.0302,-0.0312,-0.0319,-0.0324,-0.0332,-0.0342,-0.0352,-0.036,-0.0327,-0.034,-0.0344,-0.0372,-0.0398,-0.041,-0.0459,-0.047,-0.0476,-0.0455,-0.0475,-0.0474,-0.0434,0,0,0,0,0,0,-0.0328,-0.0329,-0.0309,-0.0297,-0.0292,-0.0296,-0.0304,-0.0311,-0.0298,-0.0305,-0.032,-0.0332,-0.0368,-0.0354,-0.0402,-0.0414,-0.0398,-0.0498,-0.0498,-0.0476,-0.0475,-0.0474,-0.0432,0,0,0,0,0]}]]